Regional Weather Roundup
Issued by NWS

Home | Current Version | Previous Version | Text Only | Print | Product List | Glossary Off
Versions: 1 2 3 4 5 6 7 8 9 10 11 12 13 14 15 16 17 18 19 20 21 22 23 24 25 26 27 28 29 30 31 32 33 34 35 36 37 38 39 40 41 42 43 44 45 46 47 48 49 50

394
ASUS45 KPSR 261810
RWRAZ

ARIZONA REGIONAL HOURLY WEATHER ROUNDUP
NATIONAL WEATHER SERVICE TUCSON AZ
1100 AM MST FRI MAY 26 2017

NOTE: FAIR INDICATES FEW OR NO CLOUDS BELOW 12,000 FEET WITH NO
SIGNIFICANT WEATHER AND/OR OBSTRUCTIONS TO VISIBILITY.

AZZ001>003-036-261900-
NORTHWEST ARIZONA

CITY           SKY/WX    TMP DP  RH WIND       PRES   REMARKS
BULLHEAD CITY  SUNNY     86  28  12 S21       29.76S
KINGMAN        SUNNY     79  33  19 SW24G31   29.88R
6HR MIN TEMP:  59; 6HR MAX TEMP:  80;

$$

AZZ004>008-015-016-018-261900-
NORTH CENTRAL ARIZONA

CITY           SKY/WX    TMP DP  RH WIND       PRES   REMARKS
GRAND CANYON   SUNNY     67  22  18 SW20G30   30.02S
6HR MIN TEMP:  34; 6HR MAX TEMP:  67;

WILLIAMS       CLEAR     64  19  17 S18G26    30.05S
PRESCOTT       SUNNY     71  15  11 S14G22    30.00R
6HR MIN TEMP:  53; 6HR MAX TEMP:  72;

FLAGSTAFF      SUNNY     62  15  16 SW23G31   30.07R
6HR MIN TEMP:  47; 6HR MAX TEMP:  62;

PAYSON         CLEAR     72  18  13 S12G21    30.06R
PAGE           SUNNY     79  16   9 SW8G16    29.83S
6HR MIN TEMP:  64; 6HR MAX TEMP:  79;

$$

AZZ009>014-017-261900-
NORTHEAST ARIZONA

CITY           SKY/WX    TMP DP  RH WIND       PRES   REMARKS
WINSLOW        SUNNY     79  10   7 SW18G29   29.97S
6HR MIN TEMP:  42; 6HR MAX TEMP:  79;

SAINT JOHNS    SUNNY     76  16  10 SW25G35   30.02F
6HR MIN TEMP:  58; 6HR MAX TEMP:  76;

WINDOW ROCK    SUNNY     70  16  12 S22G33    30.06F
6HR MIN TEMP:  52; 6HR MAX TEMP:  71;

$$

AZZ023-261900-
GREATER PHOENIX AREA

CITY           SKY/WX    TMP DP  RH WIND       PRES   REMARKS
PHOENIX        SUNNY     88  25  10 S17       29.83S
6HR MIN TEMP:  74; 6HR MAX TEMP:  89;

GLENDALE       SUNNY     88  30  12 S9        29.85F
LUKE AFB       SUNNY     84  31  14 SW8       29.84S
6HR MIN TEMP:  69; 6HR MAX TEMP:  85;

DEER VALLEY    SUNNY     84  27  12 S9        29.85F
6HR MIN TEMP:  66; 6HR MAX TEMP:  85; 6HR PCP: TRACE;

SCOTTSDALE     SUNNY     85  28  12 S9G20     29.87F
6HR MIN TEMP:  70; 6HR MAX TEMP:  85;

MESA-FALCON    SUNNY    N/A N/A N/A S14G25    29.86S
MESA-GATEWAY   SUNNY     88  27  11 SW17G24   29.87S
CHANDLER       SUNNY     88  23   9 MISG      29.84F
$$

AZZ027-028-261900-
SOUTHWEST MARICOPA COUNTY AND PINAL COUNTY

CITY           SKY/WX    TMP DP  RH WIND       PRES   REMARKS
CASA GRANDE    SUNNY     88  24  10 S23G31    29.86F
6HR MIN TEMP:  69; 6HR MAX TEMP:  88;

$$

AZZ503-504-507>509-261900-
SOUTHEAST ARIZONA

CITY           SKY/WX    TMP DP  RH WIND       PRES   REMARKS
TUCSON         SUNNY     89  23   9 W13       29.93F
6HR MIN TEMP:  70; 6HR MAX TEMP:  89;

DAVIS-MONTHAN  SUNNY     88  24   9 SW15G23   29.93F
6HR MIN TEMP:  64; 6HR MAX TEMP:  88;

RYAN FIELD     CLEAR     90  25   9 SW24G33   29.92F
NOGALES        SUNNY     85  23  10 SW17G30   30.01F
6HR MIN TEMP:  63; 6HR MAX TEMP:  86;

SIERRA VISTA   SUNNY     82  25  12 SW22G30   30.05F
6HR MIN TEMP:  61; 6HR MAX TEMP:  82;

DOUGLAS        SUNNY     84  32  15 SW25G31   30.03S
6HR MIN TEMP:  59; 6HR MAX TEMP:  85; 6HR PCP: TRACE;

SAFFORD        SUNNY     87  20   8 VRB3      29.92F
6HR MIN TEMP:  56; 6HR MAX TEMP:  88;

$$

AZZ020-021-025-026-031-261900-
SOUTHWEST ARIZONA

CITY           SKY/WX    TMP DP  RH WIND       PRES   REMARKS
YUMA           SUNNY     79  39  23 VRB3      29.83S
6HR MIN TEMP:  65; 6HR MAX TEMP:  80;

$$

CAZ031-033-041-043-047-048-061-261900-
SOUTHERN CALIFORNIA

CITY           SKY/WX    TMP DP  RH WIND       PRES   REMARKS
DOWNTOWN L.A.  CLOUDY    67  52  58 VRB3      29.98R
6HR MIN TEMP:  62; 6HR MAX TEMP:  72;

L.A. AIRPORT   PTSUNNY   65  53  65 W8        29.99S
6HR MIN TEMP:  61; 6HR MAX TEMP:  66;

SAN DIEGO      PTSUNNY   66  48  52 SW7       30.01S
6HR MIN TEMP:  63; 6HR MAX TEMP:  66;

BURBANK        CLOUDY    63  48  58 E5        29.98S
6HR MIN TEMP:  59; 6HR MAX TEMP:  63;

ONTARIO        CLOUDY    65  45  48 CALM      29.98S
6HR MIN TEMP:  58; 6HR MAX TEMP:  66;

RIVERSIDE      PTSUNNY   67  46  47 VRB7      29.98S
6HR MIN TEMP:  58; 6HR MAX TEMP:  68;

PALM SPRINGS   SUNNY     79  43  27 NW12G28   29.84R
6HR MIN TEMP:  63; 6HR MAX TEMP:  79;

EL CENTRO NAS  SUNNY     82  33  17 SW8       29.82F
6HR MIN TEMP:  64; 6HR MAX TEMP:  83;

IMPERIAL       SUNNY     81  39  22 S8        29.81S
6HR MIN TEMP:  63; 6HR MAX TEMP:  81; 6HR PCP: TRACE;

BLYTHE         SUNNY     83  37  19 S17       29.81S
6HR MIN TEMP:  63; 6HR MAX TEMP:  83;

NEEDLES        SUNNY     88  25  10 S16G25    29.79S
6HR MIN TEMP:  74; 6HR MAX TEMP:  88;

$$

NVZ020-UTZ003-261900-
SOUTHERN NEVADA-UTAH

CITY           SKY/WX    TMP DP  RH WIND       PRES   REMARKS
LAS VEGAS      SUNNY     80  25  13 S7        29.76S
6HR MIN TEMP:  71; 6HR MAX TEMP:  81;

SALT LAKE CITY PTSUNNY   61  39  44 N10       29.86R
6HR MIN TEMP:  53; 6HR MAX TEMP:  62;

$$

NMZ009-TXZ055-261900-
NEW MEXICO-WEST TEXAS

CITY           SKY/WX    TMP DP  RH WIND       PRES   REMARKS
ALBUQUERQUE    MOSUNNY   76  14   9 VRB6      30.03F
6HR MIN TEMP:  52; 6HR MAX TEMP:  76;

EL PASO        MOSUNNY   86  26  11 SW17G29   30.01F
6HR MIN TEMP:  72; 6HR MAX TEMP:  87;

$$


........................KEY........................
SKY/WX - SKY CONDITION/WEATHER
TMP    - TEMPERATURE IN FAHRENHEIT
DP     - DEWPOINT IN FAHRENHEIT
RH     - RELATIVE HUMIDITY IN PERCENT
WIND   - DIRECTION AND SPEED IN MILES PER HOUR (MPH)
VRB    - VARIABLE WIND DIRECTION
PRES   - MEAN SEA LEVEL PRESSURE IN INCHES OF MERCURY
         F - FALLING PRESSURE   R - RISING PRESSURE
         S - STEADY PRESSURE
VSB    - VISIBILITY IN MILES
HX     - HEAT INDEX IN FAHRENHEIT
WCI    - WIND CHILL INDEX IN FAHRENHEIT
TC     - TEMPERATURE IN CELSIUS WHICH IS ALSO KNOWN AS
         TEMPERATURE IN CENTIGRADE
AFB    - AIR FORCE BASE
         LUKE AFB IS LUKE AIR FORCE BASE
         DAVIS-MONTHAN IS DAVIS-MONTHAN AIR FORCE BASE
NAS    - NAVAL AIR STATION
         EL CENTRO NAS IS EL CENTRO NAVAL AIR STATION
N/A    - NOT AVAILABLE





USA.gov is the U.S. government's official web portal to all federal, state and local government web resources and services.